Regional Weather Roundup
Issued by NWS Spokane, WA

Home | Current Version | Previous Version | Text Only | Print | Product List | Glossary On
Versions: 1 2 3 4 5 6 7 8 9 10 11 12 13 14 15 16 17 18 19 20 21 22 23 24 25 26 27 28 29 30 31 32 33 34 35 36 37 38 39 40 41 42 43 44 45 46 47 48 49 50
504
NZUS01 KOTX 250257
RWROTX

Eastern Washington/Northern Idaho Roundup
National Weather Service, Spokane WA
800 PM PDT SAT SEP 24 2016

Note: "fair" indicated few or no clouds below 12,000 feet with no
significant weather and/or obstructions to visibility.

...Northeast Washington and Northern Idaho Panhandle...

CITY           SKY/WX    TMP DP  RH WIND       PRES   REMARKS
Spokane Intl   PTCLDY    58  35  42 SW8       30.33R
Spokane Downto CLEAR     56  38  50 CALM      30.32R
Deer Park      CLEAR     48  32  53 CALM      30.32R

...Southeast Washington and southern Idaho Panhandle...

CITY           SKY/WX    TMP DP  RH WIND       PRES   REMARKS
Walla Walla    CLEAR     58  41  53 E8        30.33R
Pullman/Moscow CLEAR     50  33  52 CALM      30.37R
Lowell           N/A     51  46  83 VRB3      30.38R

...Columbia Basin...

CITY           SKY/WX    TMP DP  RH WIND       PRES   REMARKS
Ephrata        PTCLDY    56  36  47 S7        30.29R
Moses Lake     PTCLDY    59  40  49 SE6       30.30S
Pasco          CLEAR     62  40  44 E3        30.30S
Hermiston      PTCLDY    54  41  61 E3        30.31R
Pendleton      CLEAR     57  38  48 N3        30.33R

...East Slopes Cascades...

CITY           SKY/WX    TMP DP  RH WIND       PRES   REMARKS
The Dalles     CLEAR     67  43  41 W5        30.29R
Yakima         MOCLDY    57  42  57 W3        30.30S
Ellensburg     PTCLDY    60  38  43 NW10      30.30R
Omak           MOCLDY    63  33  32 S8        30.26S
Sunnyside      PTCLDY    54  43  67 NE6       30.29S

...Southern British Columbia...

CITY           SKY/WX    TMP DP  RH WIND       PRES   REMARKS

...Western Montana...

CITY           SKY/WX    TMP DP  RH WIND       PRES   REMARKS
Missoula       MOCLDY    52  37  56 N6        30.37R

...Neighboring Cities...

CITY           SKY/WX    TMP DP  RH WIND       PRES   REMARKS
Seattle        CLOUDY    63  46  54 CALM      30.35S
Portland       PTCLDY    62  46  55 CALM      30.33R
Boise          CLEAR     60  32  34 NW3       30.31R
Great Falls    CLOUDY    49  40  71 N7        30.27R



USA.gov is the U.S. government's official web portal to all federal, state and local government web resources and services.